This demonstration page uses our WeatherBlox Daily Observations layout. Learn more.

Left ArrowRight Arrow

Hourly Observations for December 22, 2020

Temp ( °F °C ) Dew Point ( °F °C ) Humidity (%) Winds ( mph kmh ) Pressure ( in mb ) Visibility ( mi km ) Precip ( " mm )
12:52 am 00:52 Mostly Clear 29 -1.7 23 -5 78 78 S 3 6 30.13 1020 10 16 0.00 0.00
1:52 am 01:52 Mostly Clear 30 -1.1 24 -4.4 79 79 SE 6 9 30.13 1020 10 16 0.00 0.00
2:52 am 02:52 Mostly Clear 28 -2.2 23 -5 81 81 Calm 30.13 1020 10 16 0.00 0.00
3:52 am 03:52 Mostly Cloudy 28 -2.2 24 -4.4 85 85 S 6 9 30.11 1020 10 16 0.00 0.00
4:52 am 04:52 Partly Cloudy 29 -1.7 23 -5 78 78 SSE 9 15 30.10 1019 10 16 0.00 0.00
5:52 am 05:52 Mostly Clear 31 -0.6 23 -5 72 72 S 7 11 30.09 1019 10 16 0.00 0.00
6:52 am 06:52 Mostly Clear 34 1.1 24 -4.4 67 67 S 14 22 30.07 1018 10 16 0.00 0.00
7:52 am 07:52 Partly Cloudy 35 1.7 25 -3.9 67 67 S 17 28 30.05 1018 10 16 0.00 0.00
8:52 am 08:52 Partly Cloudy 37 2.8 26 -3.3 65 65 SSE 16 26 30.04 1017 10 16 0.00 0.00
9:52 am 09:52 Partly Cloudy 42 5.6 27 -2.8 55 55 S 24 39 29.99 1016 10 16 0.00 0.00
10:52 am 10:52 Mostly Sunny 47 8.3 26 -3.3 44 44 S 29 46 29.95 1014 10 16 0.00 0.00
11:52 am 11:52 Mostly Sunny 49 9.4 29 -1.7 46 46 S 22 35 29.89 1012 10 16 0.00 0.00
12:52 pm 12:52 Mostly Sunny 52 11.1 28 -2.2 40 40 S 29 46 29.83 1010 10 16 0.00 0.00
1:52 pm 13:52 Mostly Sunny 54 12.2 30 -1.1 40 40 SSE 25 41 29.77 1008 10 16 0.00 0.00
2:52 pm 14:52 Mostly Sunny 56 13.3 31 -0.6 39 39 SSE 24 39 29.71 1006 10 16 0.00 0.00
3:52 pm 15:52 Mostly Cloudy 55 12.8 30 -1.1 38 38 SSE 23 37 29.66 1005 10 16 0.00 0.00
4:52 pm 16:52 Mostly Cloudy 54 12.2 30 -1.1 40 40 SSE 22 35 29.62 1003 10 16 0.00 0.00
5:52 pm 17:52 Mostly Cloudy 52 11.1 32 0 47 47 SSE 18 30 29.59 1002 10 16 0.00 0.00
6:52 pm 18:52 Mostly Cloudy 54 12.2 33 0.6 45 45 S 23 37 29.54 1000 10 16 0.00 0.00
7:52 pm 19:52 Mostly Cloudy 55 12.8 34 1.1 45 45 S 28 44 29.52 1000 10 16 0.00 0.00
8:52 pm 20:52 Mostly Cloudy 53 11.7 35 1.7 51 51 S 18 30 29.51 999 10 16 0.00 0.00
9:52 pm 21:52 Mostly Cloudy 50 10 36 2.2 59 59 SSE 16 26 29.48 998 10 16 0.00 0.00
10:52 pm 22:52 Partly Cloudy 51 10.6 37 2.8 59 59 SSE 17 28 29.44 997 10 16 0.00 0.00
11:52 pm 23:52 Mostly Clear 50 10 38 3.3 63 63 SSE 16 26 29.42 996 10 16 0.00 0.00

Powered by AerisWeather